Starlink 32354

operational
NORAD ID: 61932 Int'l Des: 2024-207 Owner: SPXS Country: US Constellation: starlink
LEOCIRCULAR

Über Starlink 32354

Beschreibung wird geladen...

Live-Position

3D-Globus wird geladen...

Nächste Überflüge

Höhenverlauf

Altitude vs Time

uPlot chart will show altitude changes over time

Zweizeiliger Elementsatz

1 61932U 24207W 25350.81407704 .00016952 00000-0 62402-3 0 9992
2 61932 42.9991 33.5585 0000704 282.0897 77.9876 15.27585913 62494
Epoch: 16. Dez. 2025 • Age: 16 hours

Aktueller Status

Höhe 485.7 km
Geschwindigkeit 7.63 km/s
Subsatellitenpunkt 38.87°N, 111.75°W
Startdatum 11. Nov. 2024
Alter 1 years
Typ internet

Technische Details

Klassifizierung Payload
Masse 730.00 kg
Trockenmasse 700.00 kg
Gesamtmasse 730.00 kg
Länge 0.30 m
Durchmesser 4.10 m
Spannweite 29.00 m
Form Box + pan
Hersteller SPXS
Bus-Typ Starlink V2M
Phasenstatus In Orbit
Besitzer/Staat SPXS/US

Große Konstellationen

Loading constellations...